Topeka, KS

6:56 AM CST on February 10, 2016 (GMT -0600)
Billard Municipal

Weather History for KTOP - October, 2010

Change the Weather History Date:

Saturday, October 9, 2010

  Actual Average Record
Temperature  
Mean Temperature 68 °F 59 °F  
Max Temperature 87 °F 71 °F 92 °F (1954)
Min Temperature 49 °F 47 °F 25 °F (2000)
Degree Days  
Heating Degree Days 0 7  
Month to date heating degree days 47 57  
Since 1 July heating degree days 71 124  
Cooling Degree Days 3 1  
Month to date cooling degree days 12 15  
Year to date cooling degree days 1843 1408  
Growing Degree Days 18 (Base 50)    
Moisture  
Dew Point 49 °F    
Average Humidity 55    
Maximum Humidity 86    
Minimum Humidity 23    
Precipitation  
Precipitation 0.00 in 0.09 in 3.34 in (1985)
Month to date precipitation 0.00 1.00  
Year to date precipitation 33.74 31.23  
Snow  
Snow 0.00 in 0.00 in 0.80 in (1970)
Month to date snowfall 0.0 0.0  
Year to date snowfall 21.5 11.3  
Since 1 July snowfall 0.0 0.0  
Snow Depth 0.00 in    
Sea Level Pressure  
Sea Level Pressure 29.96 in    
Wind  
Wind Speed 5 mph (South)    
Max Wind Speed 20 mph    
Max Gust Speed 24 mph    
Visibility 10 miles    
Events      
T = Trace of Precipitation, MM = Missing Value Source: NWS Daily Summary

Daily Weather History Graph

Daily Weather History Graph

Search for Another Location

Airport or City:

Trip Planner

Search our weather history database for the weather conditions in past years. The results will help you decide how hot, cold, wet, or windy it might be!

Date:

Astronomy

Oct. 09, 2010 Rise Set
Actual Time 7:26 AM CDT 6:52 PM CDT
Civil Twilight 6:59 AM CDT 7:19 PM CDT
Nautical Twilight 6:28 AM CDT 7:50 PM CDT
Astronomical Twilight 5:57 AM CDT 8:21 PM CDT
Moon 9:45 AM CDT (10/9) 7:51 PM CDT (10/9)
Length of Visible Light 12h 20m
Length of Day
11h 26m
Waxing Crescent, 5% of the Moon is Illuminated
Oct 9
Waxing Crescent
Oct 14
First Quarter
Oct 22
Full
Oct 30
Last Quarter
Nov 5
New

Hourly Weather History & Observations

Time (CDT) Temp. Dew Point Humidity Pressure Visibility Wind Dir Wind Speed Gust Speed Precip Events Conditions
12:53 AM 66.2 °F 50.0 °F 56% 30.01 in 10.0 mi Calm Calm - N/A   Clear
1:53 AM 66.9 °F 50.0 °F 54% 29.99 in 10.0 mi South 3.5 mph - N/A   Clear
2:53 AM 57.0 °F 46.9 °F 69% 29.99 in 10.0 mi Calm Calm - N/A   Clear
3:53 AM 57.0 °F 50.0 °F 77% 29.99 in 10.0 mi Calm Calm - N/A   Clear
4:53 AM 54.0 °F 48.9 °F 83% 30.00 in 10.0 mi Calm Calm - N/A   Clear
5:53 AM 52.0 °F 46.9 °F 83% 30.01 in 10.0 mi Calm Calm - N/A   Clear
6:53 AM 51.1 °F 46.0 °F 83% 30.00 in 10.0 mi ESE 5.8 mph - N/A   Clear
7:53 AM 50.0 °F 46.0 °F 86% 30.00 in 10.0 mi Calm Calm - N/A   Clear
8:53 AM 61.0 °F 50.0 °F 67% 29.99 in 10.0 mi Calm Calm - N/A   Clear
9:53 AM 69.1 °F 48.9 °F 49% 29.98 in 10.0 mi South 6.9 mph - N/A   Clear
10:53 AM 75.9 °F 48.0 °F 37% 29.98 in 10.0 mi SSW 11.5 mph - N/A   Clear
11:53 AM 80.1 °F 46.9 °F 31% 29.97 in 10.0 mi SSW 8.1 mph - N/A   Clear
12:53 PM 84.0 °F 45.0 °F 25% 29.96 in 10.0 mi SSW 15.0 mph 23.0 mph N/A   Clear
1:53 PM 84.9 °F 46.0 °F 26% 29.94 in 10.0 mi South 10.4 mph - N/A   Clear
2:53 PM 86.0 °F 45.0 °F 24% 29.92 in 10.0 mi SSW 13.8 mph 19.6 mph N/A   Clear
3:53 PM 86.0 °F 46.0 °F 25% 29.91 in 10.0 mi SSW 12.7 mph - N/A   Clear
4:53 PM 86.0 °F 46.9 °F 26% 29.90 in 10.0 mi South 13.8 mph - N/A   Clear
5:53 PM 82.9 °F 48.9 °F 31% 29.90 in 10.0 mi SSE 9.2 mph - N/A   Clear
6:53 PM 79.0 °F 48.9 °F 35% 29.91 in 10.0 mi SSW 3.5 mph - N/A   Clear
7:53 PM 70.0 °F 51.1 °F 51% 29.93 in 10.0 mi Calm Calm - N/A   Clear
8:53 PM 66.0 °F 54.0 °F 65% 29.94 in 10.0 mi Calm Calm - N/A   Clear
9:53 PM 62.1 °F 53.1 °F 72% 29.94 in 10.0 mi Calm Calm - N/A   Clear
10:53 PM 59.0 °F 53.1 °F 81% 29.95 in 10.0 mi Calm Calm - N/A   Clear
11:53 PM 60.1 °F 53.1 °F 78% 29.95 in 10.0 mi Calm Calm - N/A   Clear